Weather History for Camden, AR

Change the Weather History Date:

Tuesday, June 25, 2013

  Actual Average Record
Temperature  
Mean Temperature 83 °F -  
Max Temperature 93 °F 91 °F 104 °F (2012)
Min Temperature 73 °F 69 °F 46 °F (1936)
Cooling Degree Days 18    
Growing Degree Days 33 (Base 50)    
Moisture  
Dew Point 70 °F    
Average Humidity 68    
Maximum Humidity 89    
Minimum Humidity 44    
Precipitation  
Precipitation 0.01 in - - ()
Sea Level Pressure  
Sea Level Pressure 30.00 in    
Wind  
Wind Speed 6 mph (South)    
Max Wind Speed 13 mph    
Max Gust Speed 20 mph    
Visibility 9 miles    
Events Rain    
Averages and records for this station are not official NWS values.
T = Trace of Precipitation, MM = Missing Value Source: NWS Daily Summary

Daily Weather History Graph

Daily Weather History Graph

Search for Another Location

Airport:

Trip Planner

Search our weather history database for the weather conditions in past years. The results will help you decide how hot, cold, wet, or windy it might be!

Date:

Astronomy

Jun. 25, 2013 Rise Set
Actual Time 6:02 AM CDT 8:25 PM CDT
Civil Twilight 5:33 AM CDT 8:54 PM CDT
Nautical Twilight 4:57 AM CDT 9:29 PM CDT
Astronomical Twilight 4:18 AM CDT 10:08 PM CDT
Moon 10:20 PM CDT (6/25) 8:35 AM CDT (6/25)
Length of Visible Light 15h 20m
Length of Day
14h 22m
Waning Gibbous, 92% of the Moon is Illuminated
Jun 25
Waning Gibbous
Jun 29
Last Quarter
Jul 8
New
Jul 15
First Quarter
Jul 22
Full

Hourly Weather History & Observations

Time (CDT) Temp. Heat Index Dew Point Humidity Pressure Visibility Wind Dir Wind Speed Gust Speed Precip Events Conditions
12:15 AM 77.0 °F - 69.8 °F 78% 30.04 in 10.0 mi SE 4.6 mph - N/A   Clear
12:35 AM 75.2 °F - 69.8 °F 83% 30.04 in 10.0 mi SE 3.5 mph - N/A   Clear
12:55 AM 75.2 °F - 69.8 °F 83% 30.04 in 10.0 mi SE 3.5 mph - N/A   Clear
1:15 AM 75.2 °F - 68.0 °F 78% 30.04 in 10.0 mi SE 4.6 mph - N/A   Clear
1:35 AM 75.2 °F - 68.0 °F 78% 30.04 in 10.0 mi SE 5.8 mph - N/A   Clear
1:55 AM 75.2 °F - 68.0 °F 78% 30.04 in 10.0 mi SSE 5.8 mph - N/A   Clear
2:15 AM 75.2 °F - 68.0 °F 78% 30.03 in 9.0 mi SSE 8.1 mph - N/A   Clear
2:35 AM 75.2 °F - 68.0 °F 78% 30.03 in 9.0 mi SSE 6.9 mph - N/A   Clear
2:55 AM 73.4 °F - 68.0 °F 83% 30.03 in 9.0 mi South 4.6 mph - N/A   Clear
3:15 AM 73.4 °F - 68.0 °F 83% 30.03 in 9.0 mi South 4.6 mph - N/A   Clear
3:35 AM 73.4 °F - 69.8 °F 88% 30.03 in 10.0 mi South 3.5 mph - N/A   Clear
3:55 AM 73.4 °F - 69.8 °F 88% 30.02 in 9.0 mi South 4.6 mph - N/A   Clear
4:15 AM 73.4 °F - 69.8 °F 88% 30.02 in 8.0 mi South 5.8 mph - N/A   Clear
4:35 AM 75.2 °F - 69.8 °F 83% 30.03 in 9.0 mi South 4.6 mph - N/A   Clear
4:55 AM 73.4 °F - 69.8 °F 88% 30.02 in 9.0 mi South 5.8 mph - N/A   Clear
5:15 AM 73.4 °F - 69.8 °F 88% 30.02 in 8.0 mi South 4.6 mph - N/A   Clear
5:35 AM 75.2 °F - 69.8 °F 83% 30.03 in 8.0 mi South 4.6 mph - N/A   Clear
5:55 AM 73.4 °F - 69.8 °F 88% 30.04 in 7.0 mi South 3.5 mph - N/A   Clear
6:15 AM 73.4 °F - 69.8 °F 88% 30.04 in 5.0 mi South 3.5 mph - N/A   Clear
6:35 AM 75.2 °F - 71.6 °F 89% 30.04 in 5.0 mi South 3.5 mph - N/A   Clear
6:55 AM 75.2 °F - 71.6 °F 89% 30.05 in 5.0 mi Calm Calm - N/A   Haze
7:15 AM 77.0 °F - 71.6 °F 83% 30.05 in 6.0 mi South 3.5 mph - N/A   Haze
7:35 AM 77.0 °F - 71.6 °F 83% 30.05 in 6.0 mi South 5.8 mph - N/A   Haze
7:55 AM 78.8 °F - 71.6 °F 78% 30.06 in 6.0 mi SSW 8.1 mph - N/A   Haze
8:15 AM 78.8 °F - 71.6 °F 78% 30.05 in 7.0 mi South 8.1 mph - N/A   Partly Cloudy
8:35 AM 80.6 °F 84.6 °F 71.6 °F 74% 30.06 in 6.0 mi SSW 8.1 mph - N/A   Haze
8:55 AM 82.4 °F 87.2 °F 71.6 °F 70% 30.06 in 7.0 mi SSW 8.1 mph - N/A   Mostly Cloudy
9:15 AM 82.4 °F 87.2 °F 71.6 °F 70% 30.06 in 7.0 mi SW 9.2 mph - N/A   Mostly Cloudy
9:35 AM 84.2 °F 89.6 °F 71.6 °F 66% 30.06 in 8.0 mi SW 11.5 mph 19.6 mph N/A   Mostly Cloudy
9:55 AM 84.2 °F 89.6 °F 71.6 °F 66% 30.07 in 7.0 mi SW 9.2 mph - N/A   Mostly Cloudy
10:15 AM 84.2 °F 89.6 °F 71.6 °F 66% 30.06 in 7.0 mi SW 9.2 mph - N/A   Scattered Clouds
10:35 AM 86.0 °F 91.8 °F 71.6 °F 62% 30.05 in 7.0 mi SW 6.9 mph 18.4 mph N/A   Scattered Clouds
10:55 AM 87.8 °F 93.8 °F 71.6 °F 58% 30.05 in 8.0 mi SW 12.7 mph - N/A   Partly Cloudy
11:15 AM 87.8 °F 92.6 °F 69.8 °F 55% 30.05 in 9.0 mi SSW 10.4 mph - N/A   Clear
11:35 AM 87.8 °F 93.8 °F 71.6 °F 58% 30.05 in 8.0 mi WSW 10.4 mph - N/A   Partly Cloudy
11:55 AM 87.8 °F 93.8 °F 71.6 °F 58% 30.04 in 8.0 mi WSW 8.1 mph - N/A   Mostly Cloudy
12:15 PM 89.6 °F 94.7 °F 69.8 °F 52% 30.03 in 10.0 mi SSW 11.5 mph 17.3 mph N/A   Scattered Clouds
12:35 PM 91.4 °F 95.4 °F 68.0 °F 46% 30.03 in 9.0 mi SW 11.5 mph 17.3 mph N/A   Partly Cloudy
12:55 PM 91.4 °F 95.4 °F 68.0 °F 46% 30.03 in 9.0 mi SSW 9.2 mph - N/A   Partly Cloudy
1:15 PM 91.4 °F 95.4 °F 68.0 °F 46% 30.03 in 9.0 mi SSW 12.7 mph 16.1 mph N/A   Partly Cloudy
1:35 PM 93.2 °F 97.7 °F 68.0 °F 44% 30.02 in 9.0 mi SSW 8.1 mph - N/A   Clear
1:55 PM 91.4 °F 95.4 °F 68.0 °F 46% 30.02 in 9.0 mi SSW 5.8 mph - N/A   Scattered Clouds
2:15 PM 89.6 °F 96.2 °F 71.6 °F 55% 30.02 in 8.0 mi West 5.8 mph - N/A   Mostly Cloudy
2:35 PM 86.0 °F 93.4 °F 73.4 °F 66% 30.02 in 5.0 mi SSW 4.6 mph - 0.01 in Rain Rain
2:55 PM 91.4 °F 98.4 °F 71.6 °F 52% 30.01 in 9.0 mi WSW 5.8 mph - 0.01 in   Partly Cloudy
3:15 PM 91.4 °F 96.8 °F 69.8 °F 49% 30.00 in 9.0 mi South 6.9 mph - N/A   Scattered Clouds
3:35 PM 93.2 °F 98.8 °F 69.8 °F 46% 29.99 in 9.0 mi SSE 8.1 mph - N/A   Partly Cloudy
3:55 PM 93.2 °F 98.8 °F 69.8 °F 46% 29.99 in 9.0 mi SSE 10.4 mph - N/A   Scattered Clouds
4:15 PM 91.4 °F 98.4 °F 71.6 °F 52% 29.98 in 9.0 mi SSE 6.9 mph - N/A   Scattered Clouds
4:35 PM 91.4 °F 98.4 °F 71.6 °F 52% 29.97 in 9.0 mi South 6.9 mph - N/A   Mostly Cloudy
4:55 PM 93.2 °F 98.8 °F 69.8 °F 46% 29.95 in 9.0 mi South 12.7 mph 17.3 mph N/A   Partly Cloudy
5:15 PM 91.4 °F 98.4 °F 71.6 °F 52% 29.95 in 8.0 mi SSE 9.2 mph - N/A   Partly Cloudy
5:35 PM 91.4 °F 98.4 °F 71.6 °F 52% 29.94 in 9.0 mi SSE 9.2 mph - N/A   Clear
5:55 PM 91.4 °F 98.4 °F 71.6 °F 52% 29.94 in 9.0 mi South 8.1 mph - N/A   Clear
6:15 PM 91.4 °F 96.8 °F 69.8 °F 49% 29.93 in 10.0 mi South 9.2 mph - N/A   Clear
6:35 PM 91.4 °F 96.8 °F 69.8 °F 49% 29.93 in 9.0 mi SSE 6.9 mph - N/A   Clear
6:55 PM 89.6 °F 96.2 °F 71.6 °F 55% 29.93 in 9.0 mi SSE 6.9 mph - N/A   Clear
7:15 PM 86.0 °F 91.8 °F 71.6 °F 62% 29.93 in 10.0 mi South 5.8 mph - N/A   Clear
7:35 PM 86.0 °F 91.8 °F 71.6 °F 62% 29.93 in 9.0 mi SSE 5.8 mph - N/A   Clear
7:55 PM 84.2 °F 89.6 °F 71.6 °F 66% 29.93 in 9.0 mi South 3.5 mph - N/A   Clear
8:15 PM 82.4 °F 87.2 °F 71.6 °F 70% 29.94 in 8.0 mi South 4.6 mph - N/A   Clear
8:35 PM 82.4 °F 87.2 °F 71.6 °F 70% 29.93 in 9.0 mi South 4.6 mph - N/A   Clear
8:55 PM 80.6 °F 84.6 °F 71.6 °F 74% 29.93 in 10.0 mi SSE 4.6 mph - N/A   Clear
9:15 PM 80.6 °F 83.9 °F 69.8 °F 70% 29.93 in 10.0 mi SSE 5.8 mph - N/A   Clear
9:35 PM 80.6 °F 83.9 °F 69.8 °F 70% 29.93 in 10.0 mi SSE 4.6 mph - N/A   Clear
9:55 PM 78.8 °F - 69.8 °F 74% 29.93 in 10.0 mi SSE 4.6 mph - N/A   Clear
10:15 PM 78.8 °F - 69.8 °F 74% 29.93 in 10.0 mi SSE 3.5 mph - N/A   Clear
10:35 PM 77.0 °F - 69.8 °F 78% 29.93 in 10.0 mi Calm Calm - N/A   Clear
10:55 PM 77.0 °F - 69.8 °F 78% 29.93 in 10.0 mi South 3.5 mph - N/A   Clear
11:15 PM 77.0 °F - 69.8 °F 78% 29.93 in 10.0 mi SSE 4.6 mph - N/A   Clear
11:35 PM 77.0 °F - 69.8 °F 78% 29.93 in 10.0 mi SSE 4.6 mph - N/A   Clear
11:55 PM 77.0 °F - 69.8 °F 78% 29.94 in 10.0 mi South 4.6 mph - N/A   Clear